Hourly Data Report for November 08, 2019

All times are specified in Local Standard Time (LST). Add 1 hour to adjust for Daylight Saving Time where and when it is observed.

HOPE A
BRITISH COLUMBIA
Current Station Operator: NAVCAN

49°22'06.000" N
121°29'53.000" W
39.00 m
1113542
71187
YHE

Download Data

Hourly Data (November 2019)
Hourly Data Report for November 8, 2019
TIME Temp Definition
°C
Dew Point Definition
°C
Rel Hum Definition
%
Wind Dir Definition
10's deg

Wind Spd Definition
km/h
Visibility Definition
km
Stn Press Definition
kPa
Hmdx Definition


Wind Chill Definition


Weather Definition


00:00 4.2 1.9 85 12 18 16.1 101.84     LegendNANA
01:00 4.7 1.9 82 10 15 16.1 101.82     LegendNANA
02:00 4.6 2.1 84 10 15 16.1 101.80     LegendNANA
03:00 4.8 2.3 84 11 18 16.1 101.78     LegendNANA
04:00 4.3 2.0 85 10 15 16.1 101.73     LegendNANA
05:00 4.1 2.0 86 11 17 16.1 101.69     LegendNANA
06:00 4.1 2.1 87 12 18 16.1 101.69     LegendNANA
07:00 4.3 2.0 85 11 15 16.1 101.65     LegendNANA
08:00 4.1 2.3 88 12 18 16.1 101.71     LegendNANA
09:00 5.4 2.9 84 12 17 16.1 101.69     LegendNANA
10:00 7.5 3.4 75 12 15 16.1 101.66     LegendNANA
11:00 9.3 3.7 68 11 11 16.1 101.64     LegendNANA
12:00 11.4 4.4 62 15 5 16.1 101.56     LegendNANA
13:00 9.6 5.4 75 26 5 16.1 101.49     LegendNANA
14:00 10.6 4.5 66 25 8 16.1 101.50     LegendNANA
15:00 12.4 4.6 59 25 13 16.1 101.48     LegendNANA
16:00 11.1 4.2 62 23 9 16.1 101.43     LegendNANA
17:00 8.7 4.4 74 LegendMM 4 16.1 101.45     LegendNANA
18:00 7.4 4.1 79   0 16.1 101.47     LegendNANA
19:00 7.1 4.3 83 23 8 16.1 101.51     LegendNANA
20:00 7.6 4.7 82 LegendMM 4 16.1 101.52     LegendNANA
21:00 6.0 4.1 87 LegendMM 4 16.1 101.54     LegendNANA
22:00 8.1 4.8 80 25 8 16.1 101.62     LegendNANA
23:00 8.0 4.6 79 LegendMM 4 16.1 101.64     LegendNANA

Notes on Data Quality.

Legend

  • E = Estimated
  • M = Missing
  • NA = Not Available
Date modified: